This is the latest recevied weather packets stored in our database for station/object KJ4EBE. If no packets are shown the sender has not sent any weather packets the latest 10 day(s).
| Time | Temp. | Humidity | Pressure | Rain* | Wind** | Luminosity | Snow |
|---|---|---|---|---|---|---|---|
| 1777927070 | 27.78° C | 61% | 1010 hPa | 0 mm | - | 601 W/m² | - |
| 1777926767 | 28.33° C | 60% | 1009.7 hPa | 0 mm | - | 455 W/m² | - |
| 1777926467 | 28.33° C | 59% | 1010 hPa | 0 mm | - | 670 W/m² | - |
| 1777926164 | 27.22° C | 63% | 1010 hPa | 0 mm | - | 560 W/m² | - |
| 1777925861 | 27.22° C | 63% | 1010.3 hPa | 0 mm | - | 582 W/m² | - |
| 1777925558 | 27.22° C | 62% | 1010.2 hPa | 0 mm | - | 440 W/m² | - |
| 1777925256 | 27.78° C | 62% | 1010.2 hPa | 0 mm | - | 541 W/m² | - |
| 1777924951 | 27.78° C | 60% | 1010.3 hPa | 0 mm | - | 656 W/m² | - |
| 1777924648 | 27.22° C | 64% | 1010.6 hPa | 0 mm | - | 565 W/m² | - |
| 1777924344 | 27.22° C | 63% | 1010.5 hPa | 0 mm | - | 552 W/m² | - |
| 1777924042 | 27.22° C | 61% | 1010.7 hPa | 0 mm | - | 449 W/m² | - |
| 1777923738 | 27.78° C | 60% | 1010.7 hPa | 0 mm | - | 539 W/m² | - |
| 1777923434 | 27.78° C | 63% | 1010.9 hPa | 0 mm | - | 414 W/m² | - |
| 1777923132 | 27.78° C | 59% | 1011 hPa | 0 mm | - | 687 W/m² | - |
| 1777922830 | 27.78° C | 64% | 1011.3 hPa | 0 mm | - | 804 W/m² | - |
| 1777922528 | 27.22° C | 63% | 1011.3 hPa | 0 mm | - | 800 W/m² | - |
| 1777922226 | 26.67° C | 62% | 1011.3 hPa | 0 mm | - | 778 W/m² | - |
| 1777921922 | 26.67° C | 62% | 1011.4 hPa | 0 mm | - | 781 W/m² | - |
| 1777921618 | 26.67° C | 64% | 1011.4 hPa | 0 mm | - | 810 W/m² | - |
| 1777921314 | 26.11° C | 64% | 1011.4 hPa | 0 mm | - | 838 W/m² | - |
| 1777921011 | 26.67° C | 62% | 1011.6 hPa | 0 mm | - | 798 W/m² | - |
| 1777920707 | 26.11° C | 64% | 1011.6 hPa | 0 mm | - | 763 W/m² | - |
| 1777920404 | 25.56° C | 65% | 1011.5 hPa | 0 mm | - | 824 W/m² | - |
| 1777920099 | 25.56° C | 65% | 1011.6 hPa | 0 mm | - | 792 W/m² | - |
| 1777919796 | 25.56° C | 66% | 1011.8 hPa | 0 mm | - | 861 W/m² | - |
* Rain latest hour (hover to see other rain measurements)
** Current wind speed in m/s (hover to see current wind gust speed)